GW4151 Weather Reports


time (UTC)temp
C
wind
direction
speed
KPH
gust
KPH
rain 1hr
cm
rain 24hr
cm
rain mn
cm
humidity
%
barometer
mb
20260905031024 21 171 0.0 0.0 0.00 5.23 5.23 99 994.3
20260905025521 21 176 0.0 0.0 0.00 5.23 5.23 99 994.5
20260905024019 21 176 0.0 0.0 0.00 5.23 5.23 98 994.4
20260905022515 21 190 0.0 0.0 0.00 5.23 5.23 98 994.4
20260905021010 22 194 0.0 0.0 0.00 5.23 5.23 97 994.2
20260905015509 22 191 0.0 0.0 0.00 5.23 5.23 97 994.2
20260905014005 22 176 0.0 0.0 0.00 5.23 5.23 97 994.1
20260905012503 22 176 0.0 0.0 0.00 5.23 5.23 97 994.2
20260905011003 22 166 0.0 0.0 0.00 5.23 5.23 97 994.3
20260905005500 22 168 0.0 0.0 0.00 5.23 5.23 96 993.9
20260905003957 22 173 0.0 0.0 0.00 5.23 5.23 95 993.9
20260905002455 23 176 0.0 0.0 0.00 5.23 5.23 94 993.7
20260905000950 23 184 0.0 0.0 0.00 5.23 5.23 93 993.7
20260904235449 23 162 0.0 0.0 0.00 5.23 5.23 91 993.4
20260904233945 25 187 0.0 0.0 0.00 5.23 5.23 89 993.7
20260904232444 25 176 1.6 3.2 0.00 5.23 5.23 88 993.4
20260904230942 25 71 3.2 3.2 0.00 5.23 5.23 87 993.5
20260904225440 25 70 4.8 4.8 0.00 5.23 5.23 86 993.6
20260904223935 25 135 3.2 4.8 0.00 5.23 5.23 84 993.5
20260904222432 26 285 3.2 4.8 0.00 5.23 5.23 83 993.5
20260904220928 25 138 1.6 3.2 0.00 5.23 5.23 84 993.2
20260904215424 26 176 0.0 3.2 0.00 5.23 5.23 82 993.3
20260904213920 25 184 0.0 3.2 0.00 5.23 5.23 84 993.1
20260904212416 26 148 1.6 3.2 0.00 5.23 5.23 83 993.2
20260904210913 25 153 1.6 6.4 0.00 5.23 5.23 85 993.3
20260904205410 25 13 3.2 4.8 0.00 5.23 5.23 88 993.3
20260904203909 24 182 3.2 6.4 0.00 5.23 5.23 89 993.5
20260904202408 25 166 1.6 1.6 0.00 5.23 5.23 86 993.6
20260904200906 25 200 0.0 1.6 0.00 5.23 5.23 85 993.9
20260904195403 24 48 1.6 3.2 0.00 5.23 5.23 87 993.8
20260904193859 24 153 3.2 4.8 0.00 5.23 5.23 87 993.8
20260904192356 23 25 4.8 4.8 0.00 5.23 5.23 88 993.8
20260904190851 24 203 1.6 3.2 0.00 5.23 5.23 87 994.0
20260904185349 23 147 3.2 6.4 0.00 5.23 5.23 88 994.1
20260904183845 23 172 3.2 4.8 0.00 5.23 5.23 88 994.3
20260904182342 22 179 0.0 3.2 0.00 5.23 5.23 97 994.1
20260904180839 22 229 1.6 1.6 0.00 5.23 5.23 99 994.5
20260904175338 22 35 3.2 3.2 0.00 5.23 5.23 99 994.0
20260904173836 22 183 0.0 0.0 0.00 5.23 5.23 99 994.2
20260904172332 21 166 0.0 1.6 0.00 5.23 5.23 99 994.7
20260904170831 21 94 1.6 3.2 0.00 5.23 5.23 99 994.3
20260904165325 21 195 1.6 4.8 0.00 5.23 5.23 99 994.0
20260904163823 21 13 6.4 9.7 0.00 5.23 5.23 99 993.0
20260904162323 20 173 6.4 24.1 0.00 5.23 5.23 99 991.9
20260904160820 21 127 8.0 22.5 0.30 5.21 5.21 99 993.0
20260904155316 20 212 6.4 9.7 0.00 5.13 5.13 99 995.0
20260904153811 20 202 0.0 1.6 0.00 5.13 5.13 99 994.8
20260904152309 20 138 4.8 6.4 0.00 5.13 5.13 99 995.1
20260904150805 20 221 3.2 6.4 0.48 5.11 5.11 99 995.0
20260904145306 20 161 3.2 4.8 0.00 5.00 5.00 99 994.9
20260904143803 20 216 6.4 9.7 0.00 5.00 5.00 99 995.0
20260904142306 20 201 1.6 9.7 0.18 5.00 5.00 99 996.2
20260904140800 20 166 3.2 3.2 2.11 4.98 4.98 99 996.6
20260904135256 20 197 3.2 3.2 0.00 4.60 4.60 99 996.2
20260904133752 20 185 0.0 1.6 0.00 4.60 4.60 99 995.5
20260904132249 20 143 0.0 3.2 0.13 4.57 4.57 99 996.3
20260904130749 20 335 9.7 12.9 1.50 4.55 4.55 99 996.5
20260904125246 20 19 9.7 17.7 1.07 3.84 3.84 99 996.4
20260904123743 21 317 9.7 14.5 0.89 3.56 3.56 99 995.3
20260904122239 20 298 3.2 6.4 0.30 3.38 3.38 99 994.9
20260904120738 21 284 4.8 11.3 0.13 3.30 3.30 99 994.4
20260904115235 21 47 3.2 9.7 0.30 3.25 3.25 99 994.5
20260904113731 21 167 1.6 3.2 0.30 3.17 3.17 99 994.5
20260904112226 21 63 1.6 1.6 0.30 3.12 3.12 99 994.9
20260904110725 21 137 6.4 12.9 13.39 2.97 2.97 99 994.7
20260904105220 21 298 19.3 27.4 0.48 0.23 0.23 99 995.1
20260904103720 21 188 0.0 0.0 0.30 0.10 0.10 99 993.5
20260904102217 21 187 0.0 0.0 0.00 0.03 0.03 99 993.7
20260904100716 21 190 0.0 0.0 0.00 0.03 0.03 99 993.2
20260904095212 21 178 0.0 0.0 0.00 0.03 0.03 98 993.3
20260904093710 21 196 0.0 0.0 0.00 0.03 0.03 98 993.0
20260904092207 21 89 0.0 0.0 0.00 0.03 0.03 98 993.1
20260904090705 21 170 0.0 0.0 0.00 0.03 0.03 98 993.1
20260904085201 21 180 0.0 0.0 0.00 0.00 0.00 98 992.4
20260904083700 21 183 0.0 0.0 0.00 0.00 0.00 97 993.3
20260904082158 22 187 0.0 0.0 0.00 0.00 0.00 96 993.3
20260904080656 22 161 0.0 0.0 0.00 0.00 0.00 95 993.3
20260904075154 22 181 0.0 0.0 0.00 0.00 0.00 96 993.3
20260904073649 21 192 0.0 0.0 0.00 0.00 0.00 97 993.1
20260904072147 21 178 0.0 0.0 0.00 0.00 0.00 97 993.8
20260904070643 21 43 1.6 3.2 0.00 0.00 0.00 97 993.5
20260904065141 21 129 0.0 0.0 0.00 0.00 0.00 97 993.6
20260904063638 21 174 0.0 1.6 0.00 0.00 0.00 96 992.9
20260904062137 21 157 4.8 9.7 0.00 0.00 0.00 95 993.5
20260904060636 22 149 4.8 4.8 0.00 0.00 0.00 94 994.2
20260904055133 21 191 1.6 1.6 0.00 0.00 0.00 98 994.6
20260904053631 21 321 0.0 0.0 0.00 0.00 0.00 99 994.9
20260904052130 21 176 0.0 0.0 0.00 0.00 0.00 99 994.5
20260904050628 21 194 0.0 0.0 0.00 0.00 0.00 99 994.4
20260904045124 21 193 0.0 0.0 0.00 0.00 0.00 99 994.5
20260904043624 21 180 0.0 0.0 0.00 0.00 0.00 99 994.6
20260904042122 21 210 0.0 0.0 0.00 0.00 0.00 99 994.8
20260904040621 21 198 0.0 0.0 0.00 0.00 0.00 99 994.9
20260904035118 21 174 0.0 0.0 0.00 0.61 0.61 99 995.1
20260904033615 21 191 0.0 0.0 0.00 0.61 0.61 99 995.3